Flag for Afghanistan Weather past 2 weeks in Ghazni, Afghanistan

Now
88 °F

Warm.


Feels Like: 100 °F
Forecast: 56 / 95 °F
Wind: N/A

Location: Peshawar Airport

Current Time: Jul 28, 2014 at 12:23:11 PM

Latest Report: Jul 28, 2014 at 11:30 AM


Visibility: N/A

Pressure: 29.56 "Hg

Humidity: 70%

Dew point: 77 °F

Location of GhazniLocation

Historic Weather in Ghazni — Graph

°F

Ghazni temperature yesterday

Maximum temperature yesterday: 84 °F (at 2:30 PM)
Minimum temperature yesterday: 79 °F (at 12:30 AM)
Average temperature yesterday: 82 °F

Past Weeks' High & Low Weather Summary

 TemperatureHumidityPressure
High106 °F (Jul 13, 1:30 PM)94% (Jul 26, 10:30 AM)29.71 "Hg (Jul 26, 10:30 AM)
Low77 °F (Jul 17, 8:30 AM)33% (Jul 13, 12:30 PM)29.33 "Hg (Jul 15, 5:30 PM)
Average90 °F63%29.49 "Hg
* Reported Jul 13 11:30 AM — Jul 28 11:30 AM, Ghazni, Weather by CustomWeather, © 2014

Note: Actual official high and low records may vary slightly from our data, if they occured in-between our weather recording intervals... More about our weather records

Advertising

Ghazni weather history for previous 24 hours

 ConditionsComfort  
Time TempWeatherWind HumidityBarometerVisibility
11:30 AM
Jul 28
88 °FWarm.N/A70%29.56 "HgN/A
10:30 AM86 °FWarm.N/A70%29.56 "HgN/A
9:30 AM82 °FWarm.N/A89%29.56 "HgN/A
8:30 AM82 °FWarm.N/A89%29.56 "HgN/A
7:30 AM81 °FWarm.N/A94%29.56 "HgN/A
6:30 AM81 °FWarm.N/A94%29.56 "HgN/A
4:30 AM81 °FWarm.N/A94%29.56 "HgN/A
3:30 AM82 °FWarm.N/A84%29.56 "HgN/A
2:30 AM82 °FWarm.N/A84%29.56 "HgN/A
1:30 AM82 °FWarm.N/A84%29.56 "HgN/A
12:30 AM84 °FWarm.N/A84%29.59 "HgN/A
11:30 PM
Jul 27
84 °FWarm.N/A84%29.59 "HgN/A
10:30 PM84 °FWarm.N/A84%29.59 "HgN/A
8:30 PM82 °FWarm.N/A89%29.59 "HgN/A
7:30 PM82 °FWarm.N/A89%29.56 "HgN/A
6:30 PM84 °FWarm.N/A84%29.56 "HgN/A
5:30 PM84 °FWarm.N/A84%29.56 "HgN/A
4:30 PM84 °FWarm.N/A84%29.59 "HgN/A
3:30 PM84 °FWarm.N/A84%29.62 "HgN/A
2:30 PM84 °FWarm.N/A84%29.65 "HgN/A
12:30 PM81 °FWarm.N/A94%29.68 "HgN/A
Weather by CustomWeather, © 2014

See weather overviewHow to use our weather pages